Find Starlink 5050

NORAD ID: 53890 Int'l Des: 2022-119 Owner: SPXS Country: US Constellation: starlink operational
LEOCIRCULAR

当前视图

正在加载3D地球...

About Starlink 5050

Starlink 5050 (NORAD 53890) is a starlink constellation satellite (v1.5) launched Sep 24, 2022 by SPXS of US. It operates in LEO, CIRCULAR orbit with a mass of 305.00 kg.

关于 Starlink 5050

正在加载描述...

即将过境

Passes for default location (London). Set your location on the main map for personalized predictions.

高度历史

Loading altitude history...

两行轨道根数

1 53890U 22119E 26195.58335648 .00085353 00000-0 46532-2 0 9991
2 53890 53.1605 78.9159 0003353 89.6489 0.6784 15.13653907 5857
Epoch: Jul 14, 2026 • Age: 8 hours

当前状态

高度 529.3 km
远地点 / 近地点 N/A
速度 7.60 km/s
星下点 -13.94°S, 0.73°W
发射日期 Sep 24, 2022
运行时间 3.8 years
类型 internet

技术详情

分类 Payload
质量 305.00 kg
干质量 290.00 kg
总质量 305.00 kg
长度 0.20 m
直径 2.80 m
跨度 9.00 m
形状 Box + pan
制造商 SPXS
平台类型 Starlink
阶段状态 In Orbit
所有者/国家 SPXS/US

Most Searched